STARLINK-1037

Last updated on Thu Dec 12 2019 00:02:03 GMT+0000 (Coordinated Universal Time)

1 44742U 19074AF 19345.25001157 -.00008946 00000-0 -59254-4 0 9993 2 44742 53.0093 23.1795 0002104 3.4884 314.9401 15.73240482 4680
UTC large
Height (km)
Speed (km/s)
/
Latitude / Longitude
Inclination (degrees)
Orbital Period (minutes)
Azimuth
Elevation
Range (km)
Doppler Factor

Next 0 passes for location: London (51.5072 / 0.1276)

Sorry there are no passes over London.